Location: Ailly
(50.0793°N, 1.9944°E)
Time: 20:13:23
(UTC+00:00)

Lacrosse 5 rocket - Pass Details

Date: 15 January 2026
Orbit: 401 x 481 km, 57.0° (Epoch: 15 February)

Event Time Altitude Azimuth Distance (km) Brightness Sun altitude
Exits shadow 05:43:23 27° 347° (NNW) 960 2.3 -18.9°
Maximum altitude 05:43:44 28° 357° (N) 949 2.4 -18.8°
Drops below altitude 10° 05:47:03 10° 58° (ENE) 1,684 4.4 -18.3°
Sets 05:49:27 0° 70° (ENE) 2,564 5.7 -17.9°
